When you browse on this site, cookies collect data to enhance your experience and personalize the content and advertising you see.
Visit our Privacy Policy to learn more. By continuing to use the site, you agree to this use of cookies and data.
  • en France
  • Liste des pays
  • À 7 jours
  • Température de l'eau
  • Carte météo
  • Widgets météo
  • user-avatar
    Se connecter

    Météo par heure à Bakow

    Ce jour, 29 Février, Samedi

    Heure Température Précipitation Vent Pression Humidité
    00:00 -1°C° 0 mm 4 m/s 746 mmHg 86%
    01:00 -1°C° 0 mm 4 m/s 746 mmHg 87%
    02:00 -1°C° 0 mm 4 m/s 746 mmHg 88%
    03:00 -2°C° 0 mm 4 m/s 745 mmHg 88%
    04:00 -2°C° 0 mm 4 m/s 745 mmHg 88%
    05:00 -1°C° 0 mm 4 m/s 744 mmHg 85%
    06:00 -1°C° 0 mm 4 m/s 744 mmHg 82%
    07:00 -1°C° 0 mm 4 m/s 744 mmHg 80%
    08:00 0°C° 0 mm 5 m/s 743 mmHg 70%
    09:00 +2°C° 0 mm 5 m/s 743 mmHg 61%
    10:00 +3°C° 0 mm 6 m/s 742 mmHg 51%
    11:00 +3°C° 0 mm 6 m/s 742 mmHg 49%
    12:00 +4°C° 0 mm 7 m/s 741 mmHg 48%
    13:00 +4°C° 0 mm 7 m/s 740 mmHg 46%
    14:00 +4°C° 0 mm 6 m/s 740 mmHg 53%
    15:00 +4°C° 0 mm 6 m/s 739 mmHg 60%
    16:00 +3°C° 0 mm 5 m/s 739 mmHg 68%
    17:00 +3°C° 0 mm 5 m/s 738 mmHg 67%
    18:00 +4°C° 0 mm 4 m/s 738 mmHg 67%
    19:00 +3°C° 0 mm 4 m/s 738 mmHg 67%
    20:00 +3°C° 0 mm 4 m/s 737 mmHg 68%
    21:00 +3°C° 0 mm 4 m/s 737 mmHg 68%
    22:00 +2°C° 0 mm 5 m/s 737 mmHg 69%
    23:00 +2°C° 0 mm 5 m/s 737 mmHg 69%

    Demain, 1 Mars, Dimanche

    Heure Température Précipitation Vent Pression Humidité
    00:00 +2°C° 0 mm 5 m/s 737 mmHg 68%
    01:00 +2°C° 0 mm 5 m/s 737 mmHg 68%
    02:00 +2°C° 0 mm 5 m/s 737 mmHg 68%
    03:00 +2°C° 0 mm 5 m/s 737 mmHg 69%
    04:00 +2°C° 0 mm 5 m/s 737 mmHg 70%
    05:00 +2°C° 0.6 mm 5 m/s 737 mmHg 75%
    06:00 +2°C° 0.6 mm 5 m/s 737 mmHg 79%
    07:00 +2°C° 0.6 mm 5 m/s 738 mmHg 84%
    08:00 +3°C° 0.8 mm 5 m/s 738 mmHg 84%
    09:00 +3°C° 0.8 mm 5 m/s 738 mmHg 84%
    10:00 +4°C° 0.8 mm 4 m/s 738 mmHg 85%
    11:00 +5°C° 0.1 mm 4 m/s 737 mmHg 81%
    12:00 +6°C° 0.1 mm 4 m/s 737 mmHg 77%
    13:00 +7°C° 0.1 mm 4 m/s 737 mmHg 73%
    14:00 +7°C° 0 mm 4 m/s 737 mmHg 73%
    15:00 +7°C° 0 mm 4 m/s 737 mmHg 74%
    16:00 +7°C° 0 mm 4 m/s 737 mmHg 75%
    17:00 +7°C° 0 mm 5 m/s 737 mmHg 78%
    18:00 +6°C° 0 mm 5 m/s 737 mmHg 82%
    19:00 +5°C° 0 mm 5 m/s 738 mmHg 85%
    20:00 +5°C° 0 mm 4 m/s 737 mmHg 86%
    21:00 +5°C° 0 mm 4 m/s 737 mmHg 88%
    22:00 +4°C° 0 mm 3 m/s 737 mmHg 89%
    23:00 +4°C° 0 mm 3 m/s 737 mmHg 90%

    Après-demain, 2 Mars, Lundi

    Heure Température Précipitation Vent Pression Humidité
    00:00 +3°C° 0 mm 3 m/s 737 mmHg 92%
    01:00 +3°C° 0 mm 3 m/s 737 mmHg 94%
    02:00 +3°C° 0 mm 3 m/s 736 mmHg 94%
    03:00 +3°C° 0 mm 2 m/s 735 mmHg 94%
    04:00 +3°C° 0 mm 2 m/s 734 mmHg 95%
    05:00 +2°C° 0 mm 3 m/s 734 mmHg 95%
    06:00 +2°C° 0 mm 3 m/s 734 mmHg 95%
    07:00 +1°C° 0 mm 4 m/s 733 mmHg 95%
    08:00 +3°C° 0.8 mm 4 m/s 733 mmHg 94%
    09:00 +4°C° 0.8 mm 4 m/s 732 mmHg 94%
    10:00 +4°C° 0.8 mm 3 m/s 731 mmHg 93%
    11:00 +4°C° 0.3 mm 4 m/s 731 mmHg 92%
    12:00 +3°C° 0.3 mm 5 m/s 731 mmHg 90%
    13:00 +3°C° 0.3 mm 5 m/s 731 mmHg 89%
    14:00 +5°C° 0 mm 5 m/s 731 mmHg 84%
    15:00 +6°C° 0 mm 5 m/s 731 mmHg 79%
    16:00 +7°C° 0 mm 5 m/s 731 mmHg 74%
    17:00 +6°C° 0 mm 4 m/s 732 mmHg 76%
    18:00 +5°C° 0 mm 4 m/s 733 mmHg 78%
    19:00 +4°C° 0 mm 3 m/s 733 mmHg 80%
    20:00 +4°C° 0 mm 3 m/s 734 mmHg 82%
    21:00 +3°C° 0 mm 3 m/s 734 mmHg 83%
    22:00 +3°C° 0 mm 3 m/s 734 mmHg 84%
    23:00 +3°C° 0 mm 3 m/s 734 mmHg 83%

    3 Mars, Mardi

    Heure Température Précipitation Vent Pression Humidité
    00:00 +3°C° 0 mm 3 m/s 734 mmHg 81%
    01:00 +3°C° 0 mm 4 m/s 734 mmHg 79%
    02:00 +3°C° 0 mm 4 m/s 734 mmHg 80%
    03:00 +3°C° 0 mm 4 m/s 733 mmHg 80%
    04:00 +2°C° 0 mm 5 m/s 733 mmHg 81%
    05:00 +3°C° 0 mm 5 m/s 733 mmHg 82%
    06:00 +5°C° 0 mm 5 m/s 733 mmHg 83%
    07:00 +4°C° 0 mm 6 m/s 733 mmHg 84%
    08:00 +7°C° 0 mm 6 m/s 733 mmHg 79%
    09:00 +8°C° 0 mm 6 m/s 733 mmHg 74%
    10:00 +9°C° 0 mm 6 m/s 733 mmHg 69%
    11:00 +10°C° 0 mm 6 m/s 733 mmHg 67%
    12:00 +12°C° 0 mm 5 m/s 733 mmHg 65%
    13:00 +13°C° 0 mm 5 m/s 733 mmHg 63%
    14:00 +13°C° 0 mm 4 m/s 733 mmHg 65%
    15:00 +12°C° 0 mm 3 m/s 733 mmHg 67%
    16:00 +13°C° 0 mm 2 m/s 733 mmHg 69%
    17:00 +12°C° 0.1 mm 2 m/s 733 mmHg 75%
    18:00 +10°C° 0.1 mm 2 m/s 733 mmHg 81%
    19:00 +9°C° 0.1 mm 2 m/s 734 mmHg 86%
    20:00 +9°C° 0.2 mm 3 m/s 734 mmHg 88%
    21:00 +8°C° 0.2 mm 3 m/s 734 mmHg 90%
    22:00 +8°C° 0.2 mm 3 m/s 734 mmHg 93%
    23:00 +6°C° 0.2 mm 4 m/s 734 mmHg 93%

    4 Mars, Mercredi

    Heure Température Précipitation Vent Pression Humidité
    00:00 +6°C° 0.2 mm 4 m/s 734 mmHg 93%
    01:00 +6°C° 0.2 mm 4 m/s 733 mmHg 93%
    02:00 +5°C° 0.7 mm 4 m/s 733 mmHg 94%
    03:00 +5°C° 0.7 mm 5 m/s 733 mmHg 94%
    04:00 +5°C° 0.7 mm 5 m/s 733 mmHg 94%
    05:00 +5°C° 0.6 mm 5 m/s 733 mmHg 94%
    06:00 +4°C° 0.6 mm 6 m/s 733 mmHg 93%
    07:00 +3°C° 0.6 mm 6 m/s 733 mmHg 93%
    08:00 +3°C° 0.6 mm 6 m/s 733 mmHg 92%
    09:00 +3°C° 0.6 mm 6 m/s 734 mmHg 91%
    10:00 +3°C° 0.6 mm 7 m/s 734 mmHg 91%
    11:00 +3°C° 0.4 mm 7 m/s 734 mmHg 91%
    12:00 +3°C° 0.4 mm 7 m/s 733 mmHg 91%
    13:00 +3°C° 0.4 mm 7 m/s 733 mmHg 90%
    14:00 +3°C° 0.9 mm 7 m/s 733 mmHg 92%
    15:00 +1°C° 0.9 mm 8 m/s 733 mmHg 93%
    16:00 +1°C° 0.9 mm 8 m/s 733 mmHg 94%
    17:00 +1°C° 1.3 mm 8 m/s 733 mmHg 94%
    18:00 +1°C° 1.3 mm 8 m/s 734 mmHg 94%
    19:00 0°C° 1.3 mm 9 m/s 734 mmHg 95%
    20:00 0°C° 0.9 mm 8 m/s 734 mmHg 92%
    21:00 0°C° 0.9 mm 8 m/s 734 mmHg 90%
    22:00 0°C° 0.9 mm 8 m/s 735 mmHg 88%
    23:00 0°C° 0.4 mm 7 m/s 735 mmHg 85%

    5 Mars, Jeudi

    Heure Température Précipitation Vent Pression Humidité
    00:00 0°C° 0.4 mm 7 m/s 735 mmHg 83%
    01:00 0°C° 0.4 mm 7 m/s 736 mmHg 80%
    02:00 +1°C° 0 mm 6 m/s 736 mmHg 81%
    03:00 +1°C° 0 mm 6 m/s 736 mmHg 82%
    04:00 +1°C° 0 mm 6 m/s 736 mmHg 83%
    05:00 -1°C° 0 mm 6 m/s 737 mmHg 83%
    06:00 -1°C° 0 mm 6 m/s 737 mmHg 83%
    07:00 0°C° 0 mm 5 m/s 737 mmHg 83%
    08:00 0°C° 0 mm 5 m/s 737 mmHg 80%
    09:00 +1°C° 0 mm 6 m/s 738 mmHg 77%
    10:00 +2°C° 0 mm 6 m/s 738 mmHg 75%
    11:00 +2°C° 0 mm 6 m/s 738 mmHg 70%
    12:00 +3°C° 0 mm 5 m/s 738 mmHg 65%
    13:00 +5°C° 0 mm 5 m/s 738 mmHg 60%
    14:00 +5°C° 0 mm 5 m/s 738 mmHg 59%
    15:00 +5°C° 0 mm 4 m/s 738 mmHg 57%
    16:00 +5°C° 0 mm 4 m/s 738 mmHg 55%
    17:00 +4°C° 0 mm 3 m/s 738 mmHg 59%
    18:00 +3°C° 0 mm 3 m/s 738 mmHg 64%
    19:00 +3°C° 0 mm 2 m/s 738 mmHg 68%
    20:00 +2°C° 0 mm 3 m/s 738 mmHg 71%
    21:00 +2°C° 0 mm 3 m/s 739 mmHg 74%
    22:00 +2°C° 0 mm 3 m/s 739 mmHg 77%
    23:00 +2°C° 0 mm 3 m/s 739 mmHg 78%
    Voir plus